^^
Saratoga-Weather Station Historical Data
Daily Summary for September 30, 2020 Units:  English    Metric   Both
Daily Weekly Monthly Yearly Custom
  High: Low: Average:
Temperature: 75 °F 50.4 °F 63 °F
Dew Point: 46.9 °F 39 °F 43.2 °F
Humidity: 72% 34% 50%
Wind Speed: 12.1mph 0mph 2.1mph
Wind Gust: 14mph - -
Wind- - ESE
Pressure: 30.2 in 30.1 in -
Precipitation: 0 in    
Historical Graphs
 
 
Tabular Data for September 30, 2020
Time Temperature Dew Point Pressure Wind Wind Speed Wind Gust Humidity Rainfall Rate (Hourly) solar
00:02 55.8 °F 43.3 °F 30.2 in Calm     63% 0 in 0 W/m2
00:07 55.6 °F 43.2 °F 30.2 in SW 0.9 mph 1 mph 63% 0 in 0 W/m2
00:12 55.6 °F 43.5 °F 30.2 in Calm   1 mph 64% 0 in 0 W/m2
00:17 55.4 °F 43.9 °F 30.2 in Calm   1 mph 65% 0 in 0 W/m2
00:22 55.2 °F 43.7 °F 30.1 in Calm   1 mph 65% 0 in 0 W/m2
00:27 55.2 °F 43.3 °F 30.2 in Calm     64% 0 in 0 W/m2
00:32 55 °F 43.5 °F 30.1 in Calm     65% 0 in 0 W/m2
00:37 55 °F 43.5 °F 30.1 in Calm     65% 0 in 0 W/m2
00:42 54.9 °F 43.3 °F 30.1 in Calm     65% 0 in 0 W/m2
00:47 54.7 °F 43.2 °F 30.1 in Calm     65% 0 in 0 W/m2
00:52 54.3 °F 43.2 °F 30.1 in Calm     66% 0 in 0 W/m2
00:57 54.1 °F 43 °F 30.2 in Calm     66% 0 in 0 W/m2
01:02 54 °F 43.3 °F 30.2 in SW 0.9 mph 1 mph 67% 0 in 0 W/m2
01:07 54 °F 43.3 °F 30.2 in Calm   1 mph 67% 0 in 0 W/m2
01:12 53.8 °F 43.2 °F 30.2 in Calm   1 mph 67% 0 in 0 W/m2
01:17 53.4 °F 42.8 °F 30.2 in Calm   1 mph 67% 0 in 0 W/m2
01:22 53.4 °F 43.2 °F 30.2 in Calm   1 mph 68% 0 in 0 W/m2
01:27 53.4 °F 43.2 °F 30.2 in SW 0.9 mph 2 mph 68% 0 in 0 W/m2
01:32 53.2 °F 43 °F 30.2 in SW 0.9 mph 1 mph 68% 0 in 0 W/m2
01:37 53.2 °F 43 °F 30.2 in Calm   1 mph 68% 0 in 0 W/m2
01:42 53.1 °F 42.8 °F 30.2 in SW 0.9 mph 1 mph 68% 0 in 0 W/m2
01:47 52.9 °F 42.6 °F 30.2 in Calm     68% 0 in 0 W/m2
01:52 52.9 °F 42.6 °F 30.2 in SW 0.9 mph 1 mph 68% 0 in 0 W/m2
01:57 52.9 °F 43 °F 30.2 in Calm     69% 0 in 0 W/m2
02:02 52.9 °F 43 °F 30.2 in Calm   1 mph 69% 0 in 0 W/m2
02:07 52.7 °F 42.8 °F 30.2 in SW 0.9 mph 1 mph 69% 0 in 0 W/m2
02:12 52.5 °F 42.6 °F 30.2 in Calm   1 mph 69% 0 in 0 W/m2
02:17 52.3 °F 42.8 °F 30.2 in Calm   2 mph 70% 0 in 0 W/m2
02:22 52.2 °F 42.3 °F 30.2 in Calm     69% 0 in 0 W/m2
02:27 52.2 °F 42.6 °F 30.2 in Calm   1 mph 70% 0 in 0 W/m2
02:32 52 °F 42.1 °F 30.2 in Calm     69% 0 in 0 W/m2
02:37 52 °F 42.4 °F 30.2 in Calm   1 mph 70% 0 in 0 W/m2
02:42 51.6 °F 42.1 °F 30.2 in SW 0.9 mph 1 mph 70% 0 in 0 W/m2
02:47 51.6 °F 42.1 °F 30.2 in SW 0.9 mph 1 mph 70% 0 in 0 W/m2
02:52 51.4 °F 41.9 °F 30.2 in SW 2 mph 2 mph 70% 0 in 0 W/m2
02:57 51.4 °F 42.4 °F 30.2 in SW 0.9 mph 1 mph 71% 0 in 0 W/m2
03:02 51.6 °F 42.1 °F 30.2 in SW 0.9 mph 1 mph 70% 0 in 0 W/m2
03:07 51.6 °F 42.1 °F 30.2 in Calm   1 mph 70% 0 in 0 W/m2
03:13 51.6 °F 42.1 °F 30.2 in Calm   1 mph 70% 0 in 0 W/m2
03:18 51.6 °F 42.1 °F 30.2 in Calm   2 mph 70% 0 in 0 W/m2
03:23 51.6 °F 41.7 °F 30.2 in Calm   1 mph 69% 0 in 0 W/m2
03:28 51.6 °F 41.7 °F 30.2 in Calm     69% 0 in 0 W/m2
03:33 51.6 °F 41.7 °F 30.2 in Calm   1 mph 69% 0 in 0 W/m2
03:38 51.6 °F 41.7 °F 30.2 in Calm     69% 0 in 0 W/m2
03:43 52.2 °F 42.3 °F 30.2 in SW 0.9 mph 1 mph 69% 0 in 0 W/m2
03:48 52.3 °F 42.1 °F 30.2 in Calm   1 mph 68% 0 in 0 W/m2
03:53 52.3 °F 42.1 °F 30.2 in Calm   1 mph 68% 0 in 0 W/m2
03:58 52.3 °F 42.1 °F 30.2 in Calm   1 mph 68% 0 in 0 W/m2
04:03 52.2 °F 41.9 °F 30.2 in SSW 2 mph 2 mph 68% 0 in 0 W/m2
04:08 52.2 °F 41.9 °F 30.2 in Calm     68% 0 in 0 W/m2
04:13 52.2 °F 41.9 °F 30.2 in SSW 0.9 mph 1 mph 68% 0 in 0 W/m2
04:18 52 °F 41.7 °F 30.2 in SSW 0.9 mph 1 mph 68% 0 in 0 W/m2
04:23 51.8 °F 41.9 °F 30.1 in SSW 0.9 mph 1 mph 69% 0 in 0 W/m2
04:28 51.6 °F 41.7 °F 30.2 in Calm     69% 0 in 0 W/m2
04:33 51.4 °F 41.9 °F 30.1 in SSW 0.9 mph 1 mph 70% 0 in 0 W/m2
04:39 51.3 °F 41.9 °F 30.1 in Calm   1 mph 70% 0 in 0 W/m2
04:44 51.3 °F 41.9 °F 30.1 in SSW 0.9 mph 2 mph 70% 0 in 0 W/m2
04:49 51.1 °F 41.7 °F 30.1 in Calm     70% 0 in 0 W/m2
04:54 51.1 °F 42.1 °F 30.1 in SSW 0.9 mph 1 mph 71% 0 in 0 W/m2
04:59 50.7 °F 41.7 °F 30.1 in Calm   1 mph 71% 0 in 0 W/m2
05:04 50.7 °F 41.7 °F 30.1 in Calm   1 mph 71% 0 in 0 W/m2
05:09 50.5 °F 41.9 °F 30.1 in Calm     72% 0 in 0 W/m2
05:14 50.5 °F 41.9 °F 30.1 in SSW 0.9 mph 2 mph 72% 0 in 0 W/m2
05:19 50.4 °F 41.7 °F 30.1 in Calm   1 mph 72% 0 in 0 W/m2
05:24 50.5 °F 41.9 °F 30.1 in Calm   1 mph 72% 0 in 0 W/m2
05:29 50.4 °F 41.7 °F 30.1 in SSW 0.9 mph 2 mph 72% 0 in 0 W/m2
05:34 50.4 °F 41.7 °F 30.1 in Calm   2 mph 72% 0 in 0 W/m2
05:39 50.4 °F 41.7 °F 30.1 in SSW 2 mph 2 mph 72% 0 in 5 W/m2
05:44 50.4 °F 41.7 °F 30.1 in Calm   2 mph 72% 0 in 7 W/m2
05:49 50.4 °F 41.7 °F 30.1 in SSW 0.9 mph 1 mph 72% 0 in 9 W/m2
05:54 50.5 °F 41.9 °F 30.2 in Calm   2 mph 72% 0 in 11 W/m2
05:59 50.7 °F 42.1 °F 30.2 in Calm   1 mph 72% 0 in 12 W/m2
06:04 51.1 °F 42.1 °F 30.2 in Calm     71% 0 in 14 W/m2
06:09 51.3 °F 41.4 °F 30.2 in Calm   1 mph 69% 0 in 16 W/m2
06:14 51.6 °F 42.1 °F 30.2 in Calm   1 mph 70% 0 in 19 W/m2
06:19 51.6 °F 42.1 °F 30.2 in Calm     70% 0 in 21 W/m2
06:24 51.6 °F 42.1 °F 30.2 in Calm     70% 0 in 23 W/m2
06:29 51.8 °F 41.9 °F 30.2 in SSW 0.9 mph 2 mph 69% 0 in 25 W/m2
06:34 52.3 °F 41.7 °F 30.2 in Calm   3 mph 67% 0 in 26 W/m2
06:39 52.9 °F 41.9 °F 30.2 in WNW 0.9 mph 1 mph 66% 0 in 28 W/m2
06:44 53.2 °F 41.7 °F 30.2 in WNW 2 mph 3 mph 65% 0 in 28 W/m2
06:49 53.4 °F 41.9 °F 30.2 in Calm   1 mph 65% 0 in 30 W/m2
06:54 53.6 °F 41.7 °F 30.2 in Calm   3 mph 64% 0 in 32 W/m2
06:59 53.8 °F 41.9 °F 30.2 in SSW 0.9 mph 2 mph 64% 0 in 32 W/m2
07:04 54 °F 41.7 °F 30.2 in Calm   2 mph 63% 0 in 33 W/m2
07:09 54.1 °F 41.9 °F 30.2 in ENE 5 mph 5 mph 63% 0 in 35 W/m2
07:14 54.1 °F 41.9 °F 30.2 in NW 0.9 mph 3 mph 63% 0 in 35 W/m2
07:19 54.3 °F 41.5 °F 30.2 in NE 0.9 mph 3 mph 62% 0 in 37 W/m2
07:24 54.7 °F 42.3 °F 30.2 in WNW 2 mph 2 mph 63% 0 in 39 W/m2
07:29 54.9 °F 42.4 °F 30.2 in WNW 2 mph 2 mph 63% 0 in 39 W/m2
07:34 55 °F 42.3 °F 30.2 in Calm   1 mph 62% 0 in 40 W/m2
07:39 55 °F 42.3 °F 30.2 in NE 0.9 mph 1 mph 62% 0 in 116 W/m2
07:45 55.4 °F 42.3 °F 30.2 in North 0.9 mph 4 mph 61% 0 in 218 W/m2
07:50 55.9 °F 42.6 °F 30.2 in Calm   2 mph 61% 0 in 243 W/m2
07:55 56.5 °F 43.2 °F 30.2 in NE 0.9 mph 2 mph 61% 0 in 260 W/m2
08:00 57.2 °F 42.6 °F 30.2 in Calm   3 mph 58% 0 in 274 W/m2
08:05 57.7 °F 43.9 °F 30.2 in ENE 2 mph 2 mph 60% 0 in 287 W/m2
08:10 58.3 °F 43.2 °F 30.2 in Calm   1 mph 57% 0 in 302 W/m2
08:15 58.5 °F 43.3 °F 30.2 in NW 2 mph 4 mph 57% 0 in 315 W/m2
08:20 58.6 °F 43.5 °F 30.2 in North 2.9 mph 5 mph 57% 0 in 327 W/m2
08:25 58.6 °F 43.5 °F 30.2 in WNW 0.9 mph 4 mph 57% 0 in 341 W/m2
08:30 58.8 °F 43.7 °F 30.2 in Calm   6 mph 57% 0 in 357 W/m2
08:35 59.5 °F 43.9 °F 30.2 in East 2 mph 3 mph 56% 0 in 371 W/m2
08:40 60.3 °F 44.4 °F 30.2 in NE 0.9 mph 5 mph 56% 0 in 385 W/m2
08:45 60.3 °F 43.5 °F 30.2 in ESE 2 mph 6 mph 54% 0 in 399 W/m2
08:50 60.4 °F 44.2 °F 30.2 in East 0.9 mph 4 mph 55% 0 in 410 W/m2
08:55 61 °F 44.2 °F 30.2 in NE 0.9 mph 6 mph 54% 0 in 424 W/m2
09:00 61.3 °F 44.6 °F 30.2 in NE 2.9 mph 4 mph 54% 0 in 439 W/m2
09:05 61.5 °F 44.8 °F 30.2 in NE 4.9 mph 6 mph 54% 0 in 448 W/m2
09:10 61.5 °F 44.2 °F 30.2 in NNW 2.9 mph 4 mph 53% 0 in 462 W/m2
09:15 61.9 °F 44.6 °F 30.2 in Calm   3 mph 53% 0 in 476 W/m2
09:20 62.2 °F 44.4 °F 30.2 in NE 6 mph 6 mph 52% 0 in 490 W/m2
09:25 62.4 °F 44.6 °F 30.2 in ENE 0.9 mph 7 mph 52% 0 in 503 W/m2
09:30 62.8 °F 45.3 °F 30.2 in NE 0.9 mph 3 mph 53% 0 in 517 W/m2
09:35 63.1 °F 45.1 °F 30.2 in North 0.9 mph 7 mph 52% 0 in 529 W/m2
09:40 63.5 °F 45.5 °F 30.2 in Calm   10 mph 52% 0 in 541 W/m2
09:45 63.9 °F 45.9 °F 30.2 in SE 2 mph 5 mph 52% 0 in 552 W/m2
09:51 64.2 °F 45.7 °F 30.2 in NNW 2 mph 10 mph 51% 0 in 564 W/m2
09:56 64.8 °F 46.2 °F 30.2 in NNE 0.9 mph 5 mph 51% 0 in 580 W/m2
10:01 64.9 °F 45.9 °F 30.2 in ENE 4 mph 4 mph 50% 0 in 60 W/m2
10:06 65.5 °F 45.9 °F 30.2 in ESE 2.9 mph 3 mph 49% 0 in 102 W/m2
10:11 65.5 °F 45.9 °F 30.1 in ESE 0.9 mph 8 mph 49% 0 in 613 W/m2
10:16 65.8 °F 46.8 °F 30.1 in NE 4.9 mph 8 mph 50% 0 in 628 W/m2
10:21 66.2 °F 46.9 °F 30.1 in ENE 11 mph 11 mph 50% 0 in 635 W/m2
10:26 66.6 °F 46.8 °F 30.1 in ESE 0.9 mph 8 mph 49% 0 in 649 W/m2
10:31 66.7 °F 45.9 °F 30.1 in SE 2.9 mph 7 mph 47% 0 in 659 W/m2
10:36 67.1 °F 46.8 °F 30.1 in ESE 0.9 mph 3 mph 48% 0 in 671 W/m2
10:41 67.6 °F 46 °F 30.1 in ENE 4 mph 6 mph 46% 0 in 684 W/m2
10:46 67.6 °F 46.8 °F 30.1 in East 2.9 mph 6 mph 47% 0 in 694 W/m2
10:51 67.8 °F 46.2 °F 30.1 in SE 2 mph 9 mph 46% 0 in 705 W/m2
10:56 68 °F 46.4 °F 30.1 in ENE 4.9 mph 8 mph 46% 0 in 717 W/m2
11:01 68.2 °F 46 °F 30.1 in SE 8.1 mph 10 mph 45% 0 in 726 W/m2
11:06 68 °F 45.9 °F 30.1 in ENE 8.1 mph 8 mph 45% 0 in 731 W/m2
11:11 68.4 °F 45.7 °F 30.1 in ESE 6 mph 12 mph 44% 0 in 742 W/m2
11:16 68.5 °F 45.1 °F 30.1 in ESE 4 mph 8 mph 43% 0 in 754 W/m2
11:21 68.7 °F 44.8 °F 30.1 in NE 12.1 mph 12 mph 42% 0 in 761 W/m2
11:26 68.7 °F 44.1 °F 30.1 in NE 4 mph 7 mph 41% 0 in 770 W/m2
11:31 68.7 °F 43.3 °F 30.1 in East 4 mph 7 mph 40% 0 in 782 W/m2
11:36 69.3 °F 43.2 °F 30.1 in NE 6 mph 8 mph 39% 0 in 786 W/m2
11:41 69.4 °F 42.8 °F 30.1 in East 2.9 mph 12 mph 38% 0 in 795 W/m2
11:46 69.4 °F 42.8 °F 30.1 in ESE 6 mph 10 mph 38% 0 in 803 W/m2
11:51 69.6 °F 42.8 °F 30.1 in East 4.9 mph 12 mph 38% 0 in 810 W/m2
11:56 70.2 °F 43.3 °F 30.1 in SE 2.9 mph 10 mph 38% 0 in 817 W/m2
12:01 70.3 °F 43.5 °F 30.1 in ENE 4.9 mph 11 mph 38% 0 in 826 W/m2
12:06 70.3 °F 42.8 °F 30.1 in ENE 6.9 mph 11 mph 37% 0 in 833 W/m2
12:11 70.3 °F 45 °F 30.1 in NE 0.9 mph 5 mph 40% 0 in 837 W/m2
12:16 70.5 °F 43 °F 30.1 in SW 2 mph 11 mph 37% 0 in 844 W/m2
12:21 70 °F 41.7 °F 30.1 in ENE 4.9 mph 7 mph 36% 0 in 875 W/m2
12:26 70 °F 42.4 °F 30.1 in NW 2 mph 10 mph 37% 0 in 858 W/m2
12:31 70.3 °F 42.1 °F 30.1 in ENE 2 mph 7 mph 36% 0 in 856 W/m2
12:36 70.5 °F 41.5 °F 30.1 in NNE 4.9 mph 10 mph 35% 0 in 863 W/m2
12:41 70.9 °F 42.6 °F 30.1 in NE 2.9 mph 5 mph 36% 0 in 861 W/m2
12:46 71.4 °F 43.2 °F 30.1 in East 4 mph 10 mph 36% 0 in 870 W/m2
12:51 71.2 °F 43 °F 30.1 in ESE 2.9 mph 6 mph 36% 0 in 872 W/m2
12:56 71.1 °F 43.5 °F 30.1 in East 2 mph 6 mph 37% 0 in 870 W/m2
13:01 71.2 °F 42.3 °F 30.1 in ENE 4.9 mph 14 mph 35% 0 in 882 W/m2
13:06 71.4 °F 43.2 °F 30.1 in ENE 4 mph 9 mph 36% 0 in 874 W/m2
13:11 71.2 °F 43 °F 30.1 in SE 4.9 mph 12 mph 36% 0 in 875 W/m2
13:16 71.1 °F 44.2 °F 30.1 in NE 4 mph 5 mph 38% 0 in 896 W/m2
13:21 70.7 °F 43.2 °F 30.1 in NNE 2 mph 10 mph 37% 0 in 916 W/m2
13:26 70.2 °F 42.6 °F 30.1 in ENE 2 mph 9 mph 37% 0 in 165 W/m2
13:31 70.5 °F 43.7 °F 30.1 in ENE 2.9 mph 9 mph 38% 0 in 893 W/m2
13:36 71.1 °F 43.5 °F 30.1 in ENE 2.9 mph 7 mph 37% 0 in 933 W/m2
13:41 70.5 °F 43.7 °F 30.1 in East 2.9 mph 8 mph 38% 0 in 905 W/m2
13:46 71.1 °F 44.2 °F 30.1 in NE 4.9 mph 10 mph 38% 0 in 912 W/m2
13:51 71.8 °F 44.1 °F 30.1 in ESE 6.9 mph 7 mph 37% 0 in 946 W/m2
13:56 72.1 °F 44.4 °F 30.1 in ESE 2.9 mph 4 mph 37% 0 in 963 W/m2
14:01 72.7 °F 45 °F 30.1 in East 4 mph 5 mph 37% 0 in 928 W/m2
14:06 72.9 °F 45.1 °F 30.1 in ENE 4 mph 12 mph 37% 0 in 953 W/m2
14:11 72.3 °F 43.9 °F 30.1 in ENE 0.9 mph 7 mph 36% 0 in 947 W/m2
14:16 72.5 °F 44.1 °F 30.1 in NE 4.9 mph 12 mph 36% 0 in 853 W/m2
14:21 72.3 °F 44.6 °F 30.1 in ENE 8.1 mph 13 mph 37% 0 in 914 W/m2
14:26 72.1 °F 44.4 °F 30.1 in North 2 mph 10 mph 37% 0 in 949 W/m2
14:31 72.1 °F 44.4 °F 30.1 in NNE 4 mph 11 mph 37% 0 in 995 W/m2
14:36 72 °F 45 °F 30.1 in NW 0.9 mph 9 mph 38% 0 in 165 W/m2
14:41 71.8 °F 44.1 °F 30.1 in ENE 2.9 mph 4 mph 37% 0 in 190 W/m2
14:46 71.2 °F 44.2 °F 30.1 in SW 2 mph 9 mph 38% 0 in 951 W/m2
14:51 70.9 °F 44.8 °F 30.1 in ENE 0.9 mph 8 mph 39% 0 in 649 W/m2
14:56 71.4 °F 44.4 °F 30.1 in NNE 2 mph 4 mph 38% 0 in 888 W/m2
15:01 72.5 °F 45.5 °F 30.1 in NNE 2.9 mph 4 mph 38% 0 in 860 W/m2
15:06 73 °F 45.1 °F 30.1 in NE 4 mph 4 mph 37% 0 in 884 W/m2
15:11 73.6 °F 45.7 °F 30.1 in North 2 mph 4 mph 37% 0 in 958 W/m2
15:16 73.2 °F 43.9 °F 30.1 in ENE 4.9 mph 8 mph 35% 0 in 858 W/m2
15:21 73 °F 45.1 °F 30.1 in NE 4.9 mph 10 mph 37% 0 in 867 W/m2
15:26 73 °F 43.7 °F 30.1 in ENE 2.9 mph 12 mph 35% 0 in 153 W/m2
15:31 72.9 °F 45.1 °F 30.1 in ESE 8.9 mph 9 mph 37% 0 in 896 W/m2
15:36 73 °F 45.1 °F 30.1 in East 2.9 mph 12 mph 37% 0 in 912 W/m2
15:41 73.4 °F 44.8 °F 30.1 in South 0.9 mph 7 mph 36% 0 in 954 W/m2
15:47 73.2 °F 43.9 °F 30.1 in NE 11 mph 11 mph 35% 0 in 213 W/m2
15:52 72.7 °F 44.2 °F 30.1 in East 6 mph 11 mph 36% 0 in 181 W/m2
15:57 72.7 °F 44.2 °F 30.1 in ESE 4 mph 7 mph 36% 0 in 888 W/m2
16:02 72.9 °F 43.5 °F 30.1 in North 2.9 mph 5 mph 35% 0 in 923 W/m2
16:07 73 °F 43.7 °F 30.1 in East 2.9 mph 5 mph 35% 0 in 761 W/m2
16:12 73.2 °F 43.9 °F 30.1 in West 4 mph 12 mph 35% 0 in 204 W/m2
16:17 73 °F 44.4 °F 30.1 in North 0.9 mph 6 mph 36% 0 in 230 W/m2
16:22 73.2 °F 45.3 °F 30.1 in NE 2 mph 11 mph 37% 0 in 214 W/m2
16:27 73.2 °F 43.9 °F 30.1 in ENE 2 mph 4 mph 35% 0 in 884 W/m2
16:32 73.6 °F 45 °F 30.1 in East 6.9 mph 8 mph 36% 0 in 190 W/m2
16:37 73 °F 43.7 °F 30.1 in ESE 6 mph 6 mph 35% 0 in 197 W/m2
16:42 72.7 °F 45 °F 30.1 in ESE 4 mph 7 mph 37% 0 in 846 W/m2
16:47 72.7 °F 44.2 °F 30.1 in SSE 2 mph 8 mph 36% 0 in 169 W/m2
16:52 73 °F 43.7 °F 30.1 in ENE 2.9 mph 10 mph 35% 0 in 798 W/m2
16:57 73.2 °F 44.6 °F 30.1 in NE 4 mph 9 mph 36% 0 in 213 W/m2
17:02 72.7 °F 45 °F 30.1 in North 2.9 mph 10 mph 37% 0 in 113 W/m2
17:07 72 °F 43.5 °F 30.1 in East 4 mph 5 mph 36% 0 in 120 W/m2
17:12 72.3 °F 46 °F 30.1 in East 0.9 mph 8 mph 39% 0 in 680 W/m2
17:17 73.2 °F 44.6 °F 30.1 in NNE 0.9 mph 4 mph 36% 0 in 643 W/m2
17:22 73.8 °F 45.1 °F 30.1 in NE 4 mph 10 mph 36% 0 in 656 W/m2
17:27 74.1 °F 43.9 °F 30.1 in NNE 0.9 mph 3 mph 34% 0 in 691 W/m2
17:32 75 °F 44.8 °F 30.1 in SE 4.9 mph 10 mph 34% 0 in 663 W/m2
17:37 74.5 °F 44.2 °F 30.1 in ENE 4 mph 9 mph 34% 0 in 128 W/m2
17:42 73.6 °F 44.2 °F 30.1 in ENE 6 mph 8 mph 35% 0 in 596 W/m2
17:47 73.2 °F 43.9 °F 30.1 in ENE 2.9 mph 5 mph 35% 0 in 571 W/m2
17:52 73.9 °F 44.6 °F 30.1 in SSE 2 mph 3 mph 35% 0 in 610 W/m2
17:57 74.5 °F 44.2 °F 30.1 in East 4.9 mph 9 mph 34% 0 in 123 W/m2
18:02 73.2 °F 43.2 °F 30.1 in ESE 6.9 mph 11 mph 34% 0 in 98 W/m2
18:07 72.1 °F 42.3 °F 30.1 in NE 2 mph 6 mph 34% 0 in 81 W/m2
18:12 71.4 °F 42.3 °F 30.1 in NNW 0.9 mph 3 mph 35% 0 in 97 W/m2
18:17 71.6 °F 42.4 °F 30.1 in NW 4 mph 8 mph 35% 0 in 504 W/m2
18:22 72.5 °F 43.3 °F 30.1 in ENE 0.9 mph 7 mph 35% 0 in 519 W/m2
18:27 73.4 °F 44.1 °F 30.1 in ENE 2.9 mph 6 mph 35% 0 in 313 W/m2
18:32 73.6 °F 44.2 °F 30.1 in East 8.1 mph 8 mph 35% 0 in 330 W/m2
18:37 73 °F 43 °F 30.1 in West 0.9 mph 6 mph 34% 0 in 97 W/m2
18:42 72.7 °F 43.5 °F 30.1 in ENE 2.9 mph 5 mph 35% 0 in 274 W/m2
18:47 72.7 °F 43.5 °F 30.1 in SE 6.9 mph 9 mph 35% 0 in 338 W/m2
18:52 72.3 °F 43.2 °F 30.1 in ENE 0.9 mph 6 mph 35% 0 in 123 W/m2
18:57 72 °F 43.5 °F 30.1 in East 2.9 mph 9 mph 36% 0 in 109 W/m2
19:02 71.2 °F 43 °F 30.1 in ENE 4 mph 4 mph 36% 0 in 77 W/m2
19:07 71.1 °F 43.5 °F 30.1 in Calm   1 mph 37% 0 in 67 W/m2
19:12 71.2 °F 43.7 °F 30.1 in East 8.1 mph 8 mph 37% 0 in 302 W/m2
19:18 71.4 °F 43.2 °F 30.1 in SE 6 mph 9 mph 36% 0 in 79 W/m2
19:23 71.1 °F 42.8 °F 30.1 in ESE 4 mph 6 mph 36% 0 in 70 W/m2
19:28 70.7 °F 42.4 °F 30.1 in ESE 6.9 mph 9 mph 36% 0 in 83 W/m2
19:33 70.5 °F 43 °F 30.1 in NE 2 mph 8 mph 37% 0 in 265 W/m2
19:38 70.7 °F 43.2 °F 30.1 in East 4 mph 8 mph 37% 0 in 220 W/m2
19:43 71.1 °F 43.5 °F 30.1 in South 0.9 mph 6 mph 37% 0 in 116 W/m2
19:48 71.4 °F 43.7 °F 30.1 in ENE 2 mph 4 mph 37% 0 in 172 W/m2
19:53 71.2 °F 43.7 °F 30.1 in ENE 4 mph 5 mph 37% 0 in 53 W/m2
19:58 70.7 °F 43.2 °F 30.1 in NE 4 mph 5 mph 37% 0 in 44 W/m2
20:03 70.2 °F 43.3 °F 30.1 in ESE 2.9 mph 5 mph 38% 0 in 98 W/m2
20:08 70.2 °F 43.3 °F 30.1 in ENE 4.9 mph 9 mph 38% 0 in 83 W/m2
20:13 70 °F 43.2 °F 30.1 in East 2 mph 4 mph 38% 0 in 47 W/m2
20:18 69.6 °F 43.5 °F 30.1 in East 0.9 mph 4 mph 39% 0 in 107 W/m2
20:23 69.6 °F 44.2 °F 30.1 in SSE 2 mph 3 mph 40% 0 in 95 W/m2
20:28 69.6 °F 43.5 °F 30.1 in East 2.9 mph 6 mph 39% 0 in 84 W/m2
20:33 69.4 °F 44.1 °F 30.1 in Calm   3 mph 40% 0 in 40 W/m2
20:38 69.3 °F 43.9 °F 30.1 in East 0.9 mph 2 mph 40% 0 in 39 W/m2
20:43 69.1 °F 43.7 °F 30.1 in NE 2 mph 3 mph 40% 0 in 63 W/m2
20:48 69.1 °F 44.4 °F 30.1 in NNE 8.1 mph 8 mph 41% 0 in 51 W/m2
20:53 68.7 °F 44.1 °F 30.1 in East 2.9 mph 3 mph 41% 0 in 44 W/m2
20:58 68.5 °F 43.9 °F 30.1 in ENE 2.9 mph 8 mph 41% 0 in 32 W/m2
21:03 68.4 °F 42.4 °F 30.1 in East 0.9 mph 2 mph 39% 0 in 26 W/m2
21:08 67.8 °F 41.4 °F 30.1 in NE 2.9 mph 7 mph 38% 0 in 23 W/m2
21:13 67.3 °F 41.5 °F 30.1 in East 2 mph 2 mph 39% 0 in 16 W/m2
21:18 66.7 °F 40.3 °F 30.1 in NE 2 mph 5 mph 38% 0 in 11 W/m2
21:23 66.2 °F 40.5 °F 30.1 in East 2.9 mph 6 mph 39% 0 in 7 W/m2
21:28 65.8 °F 39.6 °F 30.1 in Calm   4 mph 38% 0 in 5 W/m2
21:33 65.5 °F 40.5 °F 30.1 in East 0.9 mph 1 mph 40% 0 in 5 W/m2
21:38 64.9 °F 39.4 °F 30.1 in ESE 2 mph 3 mph 39% 0 in 0 W/m2
21:43 64.6 °F 40.3 °F 30.1 in Calm   2 mph 41% 0 in 0 W/m2
21:48 64.2 °F 40.1 °F 30.1 in South 0.9 mph 1 mph 41% 0 in 0 W/m2
21:53 63.9 °F 39.7 °F 30.1 in NE 0.9 mph 2 mph 41% 0 in 0 W/m2
21:58 63.3 °F 40.5 °F 30.1 in ESE 2.9 mph 4 mph 43% 0 in 0 W/m2
22:03 63 °F 40.1 °F 30.1 in Calm     43% 0 in 0 W/m2
22:09 62.6 °F 40.5 °F 30.1 in SE 0.9 mph 3 mph 44% 0 in 0 W/m2
22:14 62.2 °F 40.6 °F 30.1 in Calm   1 mph 45% 0 in 0 W/m2
22:19 61.7 °F 40.1 °F 30.1 in ESE 2 mph 2 mph 45% 0 in 0 W/m2
22:24 61.3 °F 40.5 °F 30.1 in Calm   2 mph 46% 0 in 0 W/m2
22:29 60.8 °F 41 °F 30.1 in SSE 0.9 mph 1 mph 48% 0 in 0 W/m2
22:34 60.3 °F 41 °F 30.1 in Calm   1 mph 49% 0 in 0 W/m2
22:39 59.9 °F 41.2 °F 30.1 in Calm     50% 0 in 0 W/m2
22:44 59.5 °F 41.4 °F 30.1 in Calm   1 mph 51% 0 in 0 W/m2
22:49 59.2 °F 41 °F 30.1 in Calm   2 mph 51% 0 in 0 W/m2
22:54 58.8 °F 40.8 °F 30.1 in East 0.9 mph 1 mph 51% 0 in 0 W/m2
22:59 58.8 °F 39.2 °F 30.1 in East 0.9 mph 2 mph 48% 0 in 0 W/m2
23:04 59.2 °F 39 °F 30.1 in Calm   1 mph 47% 0 in 0 W/m2
23:09 59.4 °F 40.3 °F 30.1 in Calm   1 mph 49% 0 in 0 W/m2
23:14 59.2 °F 40.1 °F 30.1 in Calm   1 mph 49% 0 in 0 W/m2
23:19 58.8 °F 40.3 °F 30.1 in SSE 0.9 mph 1 mph 50% 0 in 0 W/m2
23:24 58.6 °F 41 °F 30.1 in Calm   3 mph 52% 0 in 0 W/m2
23:29 58.3 °F 40.3 °F 30.1 in Calm   1 mph 51% 0 in 0 W/m2
23:34 57.9 °F 40.8 °F 30.1 in SSE 0.9 mph 3 mph 53% 0 in 0 W/m2
23:39 57.6 °F 41 °F 30.1 in SSE 2.9 mph 3 mph 54% 0 in 0 W/m2
23:44 57.4 °F 41.4 °F 30.1 in SSE 0.9 mph 1 mph 55% 0 in 0 W/m2
23:49 56.8 °F 40.8 °F 30.1 in SSE 0.9 mph 1 mph 55% 0 in 0 W/m2
23:54 56.7 °F 40.3 °F 30.1 in Calm   1 mph 54% 0 in 0 W/m2
23:59 56.5 °F 40.1 °F 30.1 in SSE 2 mph 2 mph 54% 0 in 0 W/m2
Juneau County Weather
Compliments of Weather Underground - 4 mb